Wind_Speed
20 20 20 19 19 17 17 17 16 15 15 15 15 14 14 11 9 8 8 8 9 9 9 9 10 11 13 12 12 12 11 11 11 12 12 12 12 11 11 10 9 9
20 20 19 18 18 18 18 18 17 17 16 14 13 14 14 11 9 8 9 9 10 10 10 10 10 11 12 13 13 12 11 11 12 12 12 12 12 12 11 10 10 10
18 18 17 17 17 17 17 18 18 17 15 13 12 12 12 11 9 9 9 10 10 11 11 11 11 12 13 13 13 12 12 13 13 13 14 14 13 13 13 12 12 11
18 16 14 14 14 15 15 15 15 14 12 10 10 10 10 9 10 10 10 10 11 11 12 11 12 12 13 14 13 13 14 15 15 15 15 15 15 14 14 13 12 12
16 14 13 12 12 13 12 11 12 11 9 8 8 9 8 8 10 11 11 11 12 12 12 12 12 12 13 14 14 14 15 15 16 16 15 15 15 14 13 12 11 11
14 13 12 12 12 13 12 11 11 10 11 12 9 8 9 9 10 11 11 12 12 12 12 12 12 12 13 13 14 14 15 15 15 15 15 14 14 13 11 10 9 8
12 11 10 11 13 14 13 13 12 12 14 15 13 11 10 11 12 12 13 13 13 13 12 12 12 12 11 11 11 11 12 13 13 13 12 12 11 10 9 8 7 6
10 9 10 12 14 15 14 14 13 13 15 15 14 14 14 14 14 14 15 15 14 13 13 12 12 11 10 10 9 9 9 9 9 9 9 9 8 7 7 6 5 5
7 6 7 9 12 12 11 11 11 13 14 13 13 15 17 18 17 16 16 15 15 14 14 13 12 11 10 9 8 7 7 6 6 6 6 6 6 6 6 5 5 5
6 6 6 7 8 8 7 8 8 10 12 15 16 16 19 20 19 18 17 16 16 15 14 13 12 12 11 10 9 8 7 7 6 6 6 6 7 7 6 6 6 7
6 7 7 6 6 5 6 8 8 9 12 16 19 19 20 21 20 19 19 18 18 17 16 15 15 14 13 12 12 11 10 9 9 9 9 9 10 10 9 8 8 8
6 6 7 6 5 6 6 7 9 11 14 18 20 21 22 23 22 22 21 21 20 20 19 19 18 18 17 16 15 14 13 13 13 12 12 13 13 13 13 12 11 11
4 5 7 6 6 7 7 8 9 12 14 17 20 20 22 23 24 24 24 23 23 23 22 22 22 21 20 20 19 18 18 17 17 17 17 17 17 17 17 15 13 12
5 6 7 6 6 7 9 10 10 12 14 16 19 21 22 24 26 27 26 26 26 26 26 25 25 24 23 22 22 22 22 21 21 21 20 20 20 20 20 18 17 15
8 8 8 9 9 9 10 11 11 13 15 17 19 23 24 25 27 29 29 29 29 29 29 29 28 27 26 26 25 25 25 25 25 25 24 24 24 23 21 20 19 17
11 11 11 12 13 13 12 12 13 15 17 19 21 25 26 27 29 31 32 32 32 32 32 32 31 30 29 28 28 28 28 29 28 28 28 28 28 26 24 23 21 19
11 12 14 15 16 16 15 14 14 16 19 20 22 25 28 29 30 32 34 34 34 35 35 35 34 33 31 31 31 31 30 31 31 31 32 31 29 29 29 27 26 25
11 12 14 16 18 19 19 17 17 17 20 22 24 26 30 31 31 32 35 36 36 37 38 37 37 36 35 34 35 33 32 32 33 32 33 33 30 30 31 31 30 32
12 12 14 16 18 20 21 19 18 18 20 23 24 26 30 33 33 33 36 38 38 39 40 40 40 40 39 38 38 37 36 36 36 35 36 36 35 34 35 36 37 37
13 13 14 16 18 20 21 20 19 19 20 21 22 24 26 28 30 31 33 35 36 38 41 44 45 45 44 43 42 42 41 40 38 38 39 38 39 39 38 39 40 35
14 14 14 15 17 20 21 22 21 21 20 21 22 23 24 25 26 27 28 29 30 33 36 40 44 47 47 47 47 46 45 43 41 41 41 40 41 41 37 34 32 27
16 15 15 16 17 18 20 22 22 22 23 23 24 25 26 26 27 28 28 27 27 28 30 33 38 43 45 47 50 51 48 45 42 41 42 41 39 35 30 26 23 21
18 18 19 19 20 21 23 24 24 25 25 26 28 29 29 29 30 30 30 28 26 27 29 32 35 37 38 40 47 52 51 48 45 43 42 40 34 28 25 23 22 22
23 23 24 24 24 25 27 28 28 29 29 29 31 32 33 33 33 34 33 31 29 29 32 34 33 32 32 34 38 42 44 45 44 42 40 36 30 27 25 23 23 25
28 29 29 29 29 30 31 31 32 33 33 32 32 34 35 34 34 36 35 33 32 32 34 34 33 30 29 31 32 33 35 37 39 39 37 33 30 30 27 25 25 26
33 33 34 34 34 34 35 35 35 35 36 35 35 35 36 35 34 35 35 34 33 34 34 33 32 31 28 29 32 32 31 33 34 35 35 33 31 30 28 27 27 27
Wind_Direction
266 272 275 278 279 278 276 280 286 291 296 300 300 295 287 274 259 246 229 217 211 207 205 200 194 189 185 180 175 169 164 163 161 158 158 156 157 162 165 169 172 174
261 266 272 276 277 277 278 278 281 285 289 293 292 284 274 260 243 228 216 207 200 197 194 191 189 186 182 178 176 171 165 165 162 156 153 152 154 155 156 157 158 160
255 263 270 274 276 276 277 276 277 281 284 289 287 271 255 241 225 212 204 198 192 186 182 180 178 174 173 173 171 165 159 154 149 146 145 144 145 144 143 144 144 143
250 259 265 268 271 271 271 271 273 277 279 283 284 270 250 229 213 203 195 190 183 176 172 170 168 164 162 162 159 154 149 146 142 141 140 138 137 134 131 133 133 131
241 248 252 260 269 269 266 266 271 273 263 260 272 270 254 233 210 195 187 183 178 173 169 166 165 164 162 160 157 153 149 146 144 142 140 137 135 132 129 128 126 125
233 238 244 253 266 272 269 267 271 265 249 245 251 252 245 232 210 190 183 181 178 177 174 173 172 169 168 164 161 159 154 148 146 144 143 141 137 135 133 131 130 130
228 234 241 249 261 270 269 265 263 256 249 244 237 231 229 223 207 191 184 183 182 184 182 180 180 176 175 173 170 170 163 155 152 150 149 146 143 142 141 141 145 147
231 237 245 252 259 264 265 265 258 247 245 242 235 231 226 219 210 196 190 188 187 191 190 189 189 186 186 184 182 180 174 167 163 160 159 158 155 159 160 164 173 178
238 252 260 265 267 262 261 267 260 249 240 226 225 230 223 217 213 203 197 197 196 199 201 202 203 199 197 196 194 193 190 190 188 182 184 186 185 190 191 197 210 221
252 265 266 275 280 265 249 251 253 254 238 212 206 215 215 213 214 208 203 204 206 210 214 215 215 213 212 211 210 213 215 215 218 219 221 224 222 221 224 234 245 251
253 263 260 266 282 270 248 244 237 234 226 208 200 204 209 211 212 210 209 209 210 214 218 220 222 222 223 224 223 226 232 236 239 242 242 241 239 236 241 250 257 262
247 265 264 260 270 269 257 252 240 226 217 209 203 204 211 213 213 214 214 213 214 216 218 222 226 227 228 231 233 237 243 246 249 252 252 250 246 244 248 253 258 261
255 270 267 262 271 273 263 254 245 230 218 211 207 208 214 216 217 219 220 220 221 220 221 225 228 231 233 236 240 244 248 250 252 253 252 252 251 250 250 251 253 256
266 269 270 274 278 275 267 260 251 238 229 221 214 214 218 221 222 224 224 226 228 227 227 229 230 233 237 240 244 249 250 251 252 254 254 255 254 251 251 252 251 251
250 255 261 266 267 265 263 263 259 250 241 235 227 221 221 224 226 228 228 228 231 232 233 233 233 235 239 241 245 251 254 255 255 256 257 258 258 257 257 256 255 253
245 250 252 257 261 261 259 258 258 254 246 242 236 229 227 228 229 230 231 232 234 236 237 238 238 238 240 242 245 250 255 259 260 260 261 260 260 262 262 259 258 256
243 251 255 257 259 260 258 254 253 254 251 248 242 236 234 234 233 233 234 236 238 239 241 243 244 244 244 245 247 249 254 259 261 263 264 261 258 260 261 260 260 260
242 252 259 262 263 261 259 255 250 250 252 252 249 245 241 239 240 239 237 238 240 243 246 247 247 248 248 247 248 249 251 253 256 261 264 265 265 266 264 261 262 264
240 247 254 261 265 265 265 262 254 248 248 250 249 248 246 245 246 246 244 245 246 248 251 252 252 251 249 248 249 250 251 253 256 259 263 268 271 272 270 268 267 266
240 244 249 255 259 262 265 266 262 256 252 249 249 249 249 249 250 251 251 253 253 254 255 257 258 257 255 254 254 253 253 254 257 260 264 268 271 273 273 272 269 265
250 250 252 254 256 258 260 261 263 262 260 256 253 252 251 251 251 252 254 255 256 256 257 258 258 258 256 255 255 254 254 254 256 261 265 268 273 275 275 269 261 255
259 258 258 259 261 262 261 261 263 263 264 264 261 259 257 256 256 256 254 253 253 255 258 259 259 258 256 255 254 254 253 253 255 259 265 270 274 273 265 252 241 236
263 263 263 264 265 266 265 265 266 267 268 268 268 268 267 266 266 265 261 259 259 259 260 261 261 262 261 259 256 254 253 253 256 260 264 267 266 257 244 234 228 229
266 267 267 267 267 267 267 266 266 268 269 269 270 271 270 270 270 270 268 268 267 264 263 264 264 265 263 258 256 256 255 255 256 257 258 257 250 239 231 225 225 229
268 268 269 269 269 269 269 268 267 267 267 268 269 270 270 270 270 269 270 270 268 265 265 266 267 266 263 258 257 259 259 256 254 252 250 245 237 232 228 224 226 230
270 269 269 268 269 269 268 267 266 266 266 266 266 267 268 268 268 269 270 269 266 264 264 265 266 266 262 257 255 257 257 253 248 246 245 238 229 228 228 225 227 231
Height
3132 3133 3133 3133 3133 3133 3133 3133 3133 3133 3134 3134 3134 3134 3133 3133 3132 3132 3132 3132 3133 3133 3133 3134 3134 3134 3135 3135 3135 3135 3136 3136 3137 3137 3138 3138 3139 3140 3141 3142 3143 3144
3132 3132 3132 3133 3132 3132 3132 3132 3132 3132 3133 3133 3133 3133 3133 3132 3132 3132 3132 3132 3133 3133 3133 3134 3134 3135 3135 3135 3136 3136 3136 3137 3137 3137 3138 3139 3140 3141 3141 3143 3144 3144
3131 3131 3131 3131 3131 3131 3131 3131 3130 3130 3131 3132 3133 3133 3132 3132 3131 3131 3132 3132 3133 3133 3134 3134 3134 3135 3135 3136 3136 3136 3136 3137 3137 3138 3138 3139 3140 3141 3142 3143 3144 3145
3130 3130 3130 3130 3130 3129 3129 3129 3129 3129 3130 3131 3132 3132 3132 3132 3131 3131 3132 3132 3133 3134 3134 3135 3135 3135 3135 3136 3136 3137 3137 3137 3138 3138 3139 3140 3141 3141 3142 3143 3144 3145
3129 3129 3129 3128 3128 3128 3128 3128 3128 3128 3129 3130 3131 3132 3132 3132 3132 3132 3132 3133 3134 3134 3135 3135 3135 3136 3136 3136 3137 3137 3138 3138 3138 3139 3140 3140 3141 3142 3143 3144 3144 3145
3128 3128 3128 3127 3127 3127 3127 3127 3127 3127 3128 3129 3130 3131 3132 3132 3132 3132 3133 3133 3134 3135 3135 3136 3136 3136 3137 3137 3137 3138 3138 3139 3139 3140 3140 3141 3142 3142 3143 3144 3145 3145
3127 3127 3127 3126 3126 3126 3126 3125 3126 3126 3127 3128 3130 3131 3132 3132 3132 3132 3133 3133 3134 3135 3136 3136 3137 3137 3137 3138 3138 3139 3139 3139 3140 3140 3141 3142 3142 3143 3144 3144 3145 3146
3126 3126 3126 3125 3125 3125 3124 3124 3124 3125 3126 3127 3129 3130 3131 3132 3132 3132 3133 3133 3134 3135 3135 3136 3136 3137 3137 3138 3138 3139 3140 3140 3140 3141 3142 3142 3143 3143 3144 3145 3145 3146
3125 3125 3125 3125 3124 3124 3124 3123 3123 3124 3125 3126 3128 3129 3131 3132 3132 3133 3133 3133 3134 3135 3135 3136 3136 3137 3137 3138 3138 3139 3140 3140 3141 3141 3142 3142 3143 3143 3144 3145 3145 3146
3124 3124 3124 3124 3124 3124 3124 3124 3124 3124 3125 3126 3127 3129 3130 3131 3132 3133 3133 3133 3134 3135 3135 3136 3136 3136 3137 3137 3138 3139 3139 3140 3141 3141 3142 3142 3143 3143 3144 3144 3145 3146
3123 3123 3123 3123 3123 3123 3123 3123 3124 3124 3124 3125 3126 3128 3129 3131 3132 3132 3133 3133 3134 3134 3135 3135 3136 3136 3136 3137 3138 3138 3139 3140 3141 3141 3142 3142 3143 3143 3144 3144 3145 3145
3122 3122 3122 3123 3122 3122 3123 3123 3123 3123 3124 3125 3126 3127 3128 3130 3131 3131 3132 3132 3133 3133 3134 3134 3135 3135 3135 3136 3137 3138 3139 3139 3140 3140 3141 3141 3142 3142 3143 3143 3144 3144
3119 3120 3121 3121 3121 3121 3122 3122 3123 3123 3124 3124 3125 3126 3127 3129 3130 3130 3131 3131 3132 3132 3133 3133 3133 3134 3134 3135 3136 3137 3138 3138 3139 3139 3140 3140 3141 3141 3141 3142 3142 3143
3118 3119 3119 3119 3120 3121 3122 3122 3123 3123 3124 3124 3125 3126 3127 3128 3128 3129 3130 3130 3130 3130 3131 3131 3132 3132 3133 3134 3134 3135 3135 3136 3137 3137 3138 3138 3139 3139 3140 3140 3140 3141
3118 3119 3118 3118 3119 3120 3121 3121 3122 3122 3123 3123 3124 3125 3125 3126 3127 3127 3128 3128 3128 3129 3129 3129 3130 3130 3131 3132 3132 3133 3133 3133 3134 3135 3135 3136 3136 3136 3138 3138 3138 3139
3117 3118 3118 3118 3118 3119 3119 3120 3121 3121 3122 3122 3122 3123 3123 3124 3125 3125 3126 3126 3126 3126 3126 3127 3128 3128 3129 3130 3130 3130 3131 3131 3131 3132 3133 3133 3134 3134 3135 3136 3137 3137
3116 3116 3117 3117 3117 3117 3118 3118 3119 3120 3120 3120 3120 3121 3122 3122 3122 3123 3123 3124 3124 3124 3124 3124 3125 3126 3127 3127 3127 3128 3128 3128 3129 3129 3130 3131 3132 3133 3133 3134 3135 3134
3114 3115 3115 3115 3115 3115 3115 3116 3117 3117 3118 3118 3118 3119 3119 3119 3120 3120 3121 3121 3122 3121 3121 3121 3122 3123 3124 3124 3124 3124 3125 3125 3126 3126 3127 3128 3129 3130 3131 3131 3131 3131
3112 3113 3113 3113 3113 3113 3113 3113 3114 3115 3115 3115 3116 3116 3116 3116 3117 3118 3118 3118 3119 3119 3119 3118 3119 3120 3121 3121 3121 3122 3122 3122 3123 3123 3124 3124 3125 3126 3127 3127 3127 3128
3110 3111 3111 3111 3111 3111 3110 3111 3111 3112 3112 3112 3113 3113 3112 3113 3114 3114 3115 3115 3116 3116 3116 3115 3114 3115 3116 3117 3117 3118 3118 3119 3120 3120 3120 3121 3121 3122 3123 3122 3123 3124
3108 3108 3109 3108 3108 3109 3109 3109 3109 3109 3109 3109 3109 3109 3109 3110 3110 3110 3111 3112 3112 3112 3111 3110 3109 3109 3110 3112 3112 3112 3114 3115 3116 3116 3116 3117 3117 3117 3118 3118 3118 3120
3104 3105 3105 3106 3106 3107 3107 3107 3107 3107 3107 3106 3106 3106 3106 3106 3106 3105 3105 3107 3107 3107 3106 3105 3103 3102 3104 3107 3107 3107 3109 3110 3111 3113 3113 3113 3113 3113 3113 3114 3115 3117
3101 3101 3102 3102 3103 3104 3104 3104 3104 3104 3104 3103 3103 3102 3102 3102 3101 3100 3100 3100 3101 3101 3100 3099 3098 3098 3100 3102 3102 3102 3104 3106 3108 3109 3109 3109 3109 3109 3110 3111 3113 3114
3098 3098 3098 3099 3099 3100 3100 3101 3101 3101 3100 3100 3099 3099 3098 3098 3097 3096 3096 3095 3096 3096 3095 3094 3094 3096 3097 3097 3097 3098 3100 3102 3104 3105 3105 3105 3106 3106 3107 3109 3111 3112
3094 3094 3094 3095 3095 3096 3096 3096 3097 3097 3096 3096 3096 3095 3095 3094 3094 3093 3092 3092 3092 3092 3091 3090 3091 3094 3095 3095 3095 3096 3097 3098 3100 3100 3101 3102 3103 3103 3104 3106 3108 3109
3090 3090 3090 3091 3091 3091 3091 3092 3092 3092 3092 3092 3092 3091 3090 3090 3090 3089 3089 3089 3088 3087 3087 3088 3088 3089 3091 3091 3091 3092 3093 3094 3096 3096 3097 3098 3099 3100 3101 3103 3104 3105